Fort Meade, MD

12:17 PM EDT on October 22, 2017 (GMT -0400)
Tipton

Weather History for KFME - December, 2012

Change the Weather History Date:

Friday, December 7, 2012

  Actual Average (KBWI) Record (KBWI)
Temperature  
Mean Temperature 38 °F -  
Max Temperature 48 °F 48 °F 77 °F (1998)
Min Temperature 28 °F 32 °F 6 °F (2002)
Degree Days  
Heating Degree Days 27    
Moisture  
Dew Point 36 °F    
Average Humidity 85    
Maximum Humidity 100    
Minimum Humidity 66    
Precipitation  
Precipitation 0.00 in - - ()
Sea Level Pressure  
Sea Level Pressure 30.14 in    
Wind  
Wind Speed 0 mph (SSE)    
Max Wind Speed 5 mph    
Max Gust Speed -    
Visibility 9 miles    
Events      
Averages and records for this station are not official NWS values.
T = Trace of Precipitation, MM = Missing Value Source: NWS Daily Summary

Daily Weather History Graph

Daily Weather History Graph

Search for Another Location

Airport or City:

Trip Planner

Search our weather history database for the weather conditions in past years. The results will help you decide how hot, cold, wet, or windy it might be!

Date:

Astronomy

Dec. 07, 2012 Rise Set
Actual Time 7:13 AM EST 4:44 PM EST
Civil Twilight 6:43 AM EST 5:14 PM EST
Nautical Twilight 6:09 AM EST 5:47 PM EST
Astronomical Twilight 5:37 AM EST 6:19 PM EST
Moon 12:32 AM EST (12/7) 12:37 PM EST (12/7)
Length of Visible Light 10h 30m
Length of Day
9h 31m
Last Quarter, 39% of the Moon is Illuminated
Dec 7
Last Quarter
Dec 13
New
Dec 20
First Quarter
Dec 28
Full
Jan 4
Last Quarter

Hourly Weather History & Observations

Time (EST) Temp. Windchill Dew Point Humidity Pressure Visibility Wind Dir Wind Speed Gust Speed Precip Events Conditions
12:12 AM 28.4 °F - 24.8 °F 86% 30.28 in 10.0 mi Calm Calm - N/A   Clear
12:33 AM 28.4 °F - 26.6 °F 93% 30.27 in 10.0 mi Calm Calm - N/A   Mostly Cloudy
12:54 AM 30.2 °F - 26.6 °F 86% 30.26 in 10.0 mi Calm Calm - N/A   Mostly Cloudy
1:18 AM 30.2 °F - 26.6 °F 86% 30.26 in 10.0 mi Calm Calm - N/A   Overcast
1:39 AM 30.2 °F - 26.6 °F 86% 30.26 in 10.0 mi Calm Calm - N/A   Mostly Cloudy
2:00 AM 30.2 °F - 28.4 °F 93% 30.25 in 10.0 mi Calm Calm - N/A   Mostly Cloudy
2:21 AM 32.0 °F - 28.4 °F 87% 30.25 in 10.0 mi Calm Calm - N/A   Overcast
2:42 AM 32.0 °F - 28.4 °F 87% 30.25 in 10.0 mi Calm Calm - N/A   Overcast
3:03 AM 32.0 °F - 28.4 °F 87% 30.24 in 10.0 mi Calm Calm - N/A   Mostly Cloudy
3:24 AM 32.0 °F - 28.4 °F 87% 30.23 in 10.0 mi Calm Calm - N/A   Overcast
3:45 AM 32.0 °F - 28.4 °F 87% 30.22 in 10.0 mi Calm Calm - N/A   Scattered Clouds
4:06 AM 32.0 °F - 28.4 °F 87% 30.21 in 10.0 mi Calm Calm - N/A   Clear
4:30 AM 32.0 °F - 28.4 °F 87% 30.21 in 10.0 mi Calm Calm - N/A   Mostly Cloudy
4:51 AM 32.0 °F - 30.2 °F 93% 30.21 in 10.0 mi Calm Calm - N/A   Overcast
5:12 AM 32.0 °F - 30.2 °F 93% 30.21 in 10.0 mi Calm Calm - N/A   Overcast
5:33 AM 33.8 °F - 30.2 °F 87% 30.21 in 10.0 mi Calm Calm - N/A   Overcast
5:54 AM 33.8 °F - 30.2 °F 87% 30.21 in 10.0 mi Calm Calm - N/A   Overcast
6:15 AM 33.8 °F - 30.2 °F 87% 30.21 in 10.0 mi Calm Calm - N/A   Overcast
6:36 AM 33.8 °F - 32.0 °F 93% 30.21 in 10.0 mi Calm Calm - N/A   Overcast
6:57 AM 33.8 °F - 32.0 °F 93% 30.21 in 10.0 mi Calm Calm - N/A   Overcast
7:18 AM 35.6 °F - 32.0 °F 87% 30.21 in 10.0 mi Calm Calm - N/A   Overcast
7:39 AM 33.8 °F - 32.0 °F 93% 30.20 in 7.0 mi Calm Calm - N/A   Overcast
8:00 AM 33.8 °F - 33.8 °F 100% 30.20 in 7.0 mi Calm Calm - N/A   Overcast
8:21 AM 35.6 °F - 33.8 °F 93% 30.20 in 7.0 mi Calm Calm - N/A   Overcast
8:45 AM 35.6 °F - 35.6 °F 100% 30.20 in 10.0 mi Calm Calm - N/A   Overcast
9:06 AM 37.4 °F - 35.6 °F 93% 30.20 in 7.0 mi Calm Calm - N/A   Overcast
9:48 AM 37.4 °F - 35.6 °F 93% 30.21 in 10.0 mi Calm Calm - N/A   Overcast
10:09 AM 39.2 °F - 37.4 °F 93% 30.20 in 10.0 mi Calm Calm - N/A   Overcast
10:30 AM 39.2 °F - 37.4 °F 93% 30.19 in 10.0 mi Calm Calm - N/A   Overcast
11:12 AM 41.0 °F 38.0 °F 37.4 °F 87% 30.16 in 10.0 mi SSE 4.6 mph - N/A   Overcast
11:33 AM 42.8 °F 41.1 °F 37.4 °F 81% 30.15 in 10.0 mi SSW 3.5 mph - N/A   Overcast
11:54 AM 42.8 °F 40.1 °F 37.4 °F 81% 30.13 in 10.0 mi SSW 4.6 mph - N/A   Overcast
12:15 PM 44.6 °F 43.1 °F 37.4 °F 76% 30.13 in 10.0 mi SW 3.5 mph - N/A   Overcast
12:36 PM 44.6 °F 43.1 °F 37.4 °F 76% 30.12 in 10.0 mi SSW 3.5 mph - N/A   Overcast
1:00 PM 44.6 °F 43.1 °F 37.4 °F 76% 30.11 in 10.0 mi South 3.5 mph - N/A   Overcast
1:21 PM 44.6 °F - 37.4 °F 76% 30.10 in 10.0 mi Calm Calm - N/A   Overcast
1:42 PM 46.4 °F - 37.4 °F 71% 30.10 in 10.0 mi Calm Calm - N/A   Overcast
2:03 PM 46.4 °F - 37.4 °F 71% 30.09 in 10.0 mi Calm Calm - N/A   Overcast
2:24 PM 46.4 °F - 37.4 °F 71% 30.08 in 10.0 mi Calm Calm - N/A   Overcast
2:45 PM 46.4 °F - 37.4 °F 71% 30.08 in 10.0 mi Calm Calm - N/A   Overcast
3:06 PM 46.4 °F - 37.4 °F 71% 30.08 in 10.0 mi Calm Calm - N/A   Overcast
3:27 PM 48.2 °F - 39.2 °F 71% 30.08 in 10.0 mi Calm Calm - N/A   Overcast
3:48 PM 48.2 °F - 39.2 °F 71% 30.08 in 10.0 mi Calm Calm - N/A   Overcast
4:09 PM 48.2 °F - 37.4 °F 66% 30.08 in 10.0 mi Calm Calm - N/A   Overcast
4:30 PM 46.4 °F - 39.2 °F 76% 30.08 in 10.0 mi Calm Calm - N/A   Overcast
4:51 PM 46.4 °F - 39.2 °F 76% 30.07 in 10.0 mi Calm Calm - N/A   Overcast
5:15 PM 46.4 °F - 39.2 °F 76% 30.07 in 10.0 mi Calm Calm - N/A   Overcast
5:36 PM 46.4 °F - 41.0 °F 81% 30.07 in 10.0 mi Calm Calm - N/A   Overcast
5:57 PM 46.4 °F - 41.0 °F 81% 30.08 in 10.0 mi Calm Calm - N/A   Overcast
6:18 PM 46.4 °F 45.2 °F 41.0 °F 81% 30.07 in 10.0 mi East 3.5 mph - N/A   Overcast
6:39 PM 46.4 °F 45.2 °F 41.0 °F 81% 30.07 in 10.0 mi East 3.5 mph - N/A   Overcast
7:00 PM 46.4 °F - 41.0 °F 81% 30.07 in 10.0 mi Calm Calm - N/A   Overcast
7:21 PM 46.4 °F - 42.8 °F 87% 30.06 in 10.0 mi Calm Calm - N/A   Overcast
7:42 PM 46.4 °F - 42.8 °F 87% 30.06 in 10.0 mi Calm Calm - N/A   Overcast
8:24 PM 46.4 °F - 42.8 °F 87% 30.06 in 10.0 mi Calm Calm - N/A   Overcast
8:45 PM 46.4 °F - 42.8 °F 87% 30.05 in 10.0 mi Calm Calm - N/A   Overcast
9:06 PM 46.4 °F - 42.8 °F 87% 30.05 in 10.0 mi Calm Calm - N/A   Overcast
9:27 PM 46.4 °F - 42.8 °F 87% 30.04 in 7.0 mi Calm Calm - N/A   Overcast
9:51 PM 44.6 °F - 42.8 °F 93% 30.03 in 7.0 mi Calm Calm - N/A   Overcast
10:54 PM 44.6 °F 43.1 °F 42.8 °F 93% 30.01 in 4.0 mi East 3.5 mph - N/A   Overcast
11:15 PM 44.6 °F - 44.6 °F 100% 30.01 in 4.0 mi Calm Calm - N/A   Overcast
11:36 PM 44.6 °F - 44.6 °F 100% 30.01 in 4.0 mi Calm Calm - N/A   Overcast
11:57 PM 44.6 °F - 44.6 °F 100% 30.00 in 4.0 mi Calm Calm - N/A   Overcast